Home   Weather   Schwabach   Past weeks

Flag for Germany Past Weather in Schwabach, Bavaria, Germany — Yesterday and Last 2 Weeks

Now
70 °F

Passing clouds.


Feels Like: 70 °F
Forecast: 49 / 60 °F
Wind: 14 mph from Southwest

Location: Nuernberg

Current Time: Oct 1, 2016 at 12:28:54 PM

Latest Report: Oct 1, 2016 at 11:50 AM


Visibility: N/A

Pressure: 29.89 "Hg

Humidity: 57%

Dew Point: 54 °F

Location of SchwabachLocation

Past Weather in Schwabach — Graph

°F

Schwabach Temperature Yesterday

Maximum temperature yesterday: 73 °F (at 1:20 PM)
Minimum temperature yesterday: 54 °F (at 6:50 AM)
Average temperature yesterday: 62 °F

High & Low Weather Summary for the Past Weeks

 TemperatureHumidityPressure
High75 °F (Sep 29, 2:50 PM)100% (Sep 17, 9:50 AM)30.39 "Hg (Sep 17, 9:50 AM)
Low41 °F (Sep 22, 5:50 AM)33% (Sep 25, 3:20 PM)29.86 "Hg (Sep 17, 6:20 PM)
Average58 °F81%30.12 "Hg
* Reported Sep 16 11:20 AM — Oct 1 11:20 AM, Schwabach, Weather by CustomWeather, © 2016

Note: Actual official high and low records may vary slightly from our data, if they occured in-between our weather recording intervals... More about our weather records

Advertising

Schwabach Weather History for the Previous 24 Hours

Scroll right to see more
 ConditionsComfort  
Time TempWeatherWind HumidityBarometerVisibility
11:20 AM
Sat, Oct 1
68 °FPassing clouds.7 mph60%29.89 "HgN/A
10:50 AM66 °FPassing clouds.6 mph68%29.89 "HgN/A
10:20 AM63 °FPassing clouds.5 mph73%29.89 "HgN/A
9:50 AM61 °FPassing clouds.5 mph77%29.89 "HgN/A
9:20 AM59 °FPassing clouds.6 mph88%29.86 "HgN/A
8:50 AM57 °FSunny.5 mph94%29.86 "Hg10 mi
8:20 AM54 °FSunny.3 mph100%29.86 "Hg10 mi
7:50 AM52 °FSunny.3 mph100%29.86 "Hg10 mi
7:20 AM54 °FSunny.6 mph94%29.86 "Hg10 mi
6:50 AM54 °FClear.6 mph100%29.86 "Hg10 mi
6:20 AM54 °FPassing clouds.6 mph100%29.89 "HgN/A
5:50 AM55 °FClear.5 mph94%29.89 "Hg10 mi
5:20 AM54 °FClear.5 mph100%29.89 "Hg10 mi
4:50 AM54 °FClear.1 mph100%29.92 "Hg10 mi
4:20 AM55 °FClear.2 mph94%29.92 "Hg10 mi
3:50 AM54 °FClear.3 mph100%29.92 "Hg10 mi
3:20 AM54 °FClear.5 mph100%29.92 "Hg10 mi
2:50 AM54 °FClear.3 mph94%29.95 "Hg10 mi
2:20 AM54 °FClear.1 mph94%29.95 "Hg10 mi
1:50 AM52 °FFog.5 mph100%29.95 "HgN/A
1:20 AM52 °FFog.No wind100%29.98 "HgN/A
12:50 AM54 °FClear.No wind94%29.98 "Hg10 mi
12:20 AM54 °FClear.No wind94%29.98 "Hg10 mi
11:50 PM
Fri, Sep 30
55 °FClear.No wind94%29.98 "Hg10 mi
11:20 PM55 °FClear.No wind94%30.01 "Hg10 mi
10:50 PM54 °FClear.No wind100%29.98 "Hg10 mi
10:20 PM55 °FClear.No wind88%30.01 "Hg10 mi
9:50 PM57 °FClear.No wind88%30.01 "Hg10 mi
9:20 PM57 °FClear.1 mph88%30.01 "Hg10 mi
8:50 PM59 °FClear.1 mph88%30.01 "Hg10 mi
8:20 PM61 °FPassing clouds.5 mph83%30.01 "HgN/A
7:50 PM61 °FPassing clouds.6 mph77%29.98 "HgN/A
7:20 PM64 °FClear.1 mph64%29.98 "Hg10 mi
6:50 PM66 °FSunny.5 mph64%29.98 "Hg10 mi
6:20 PM66 °FPassing clouds.6 mph60%29.98 "HgN/A
5:50 PM68 °FPassing clouds.8 mph56%29.98 "HgN/A
5:20 PM70 °FSunny.12 mph53%29.98 "Hg10 mi
4:50 PM70 °FSunny.14 mph50%29.98 "Hg10 mi
4:20 PM72 °FSunny.9 mph47%29.98 "Hg10 mi
3:50 PM72 °FPassing clouds.8 mph47%29.98 "HgN/A
3:20 PM72 °FSunny.9 mph47%29.98 "Hg10 mi
2:50 PM73 °FPassing clouds.9 mph44%29.98 "HgN/A
2:20 PM72 °FPassing clouds.10 mph50%29.98 "HgN/A
1:50 PM72 °FPassing clouds.10 mph47%29.98 "HgN/A
1:20 PM73 °FPassing clouds.10 mph44%29.98 "HgN/A
12:50 PM72 °FPassing clouds.7 mph50%30.01 "HgN/A
12:20 PM72 °FSunny.9 mph47%30.01 "Hg10 mi
Weather by CustomWeather, © 2016

See weather overviewHow to use our weather pages